Temperature
11 12 13 13 14 14 14 15 15 15 15 15 15 15 15 15 15 15 15 15 15 15 15 16 16 16 16 16 16 17 17 17 17 17 17 17 17 17 17 17 17 17 17
10 11 13 13 14 14 14 15 15 15 15 15 15 15 15 15 15 15 15 15 15 15 15 15 15 16 16 16 16 16 16 17 17 17 17 17 17 17 17 17 17 16 17
10 11 12 13 13 14 14 14 15 15 15 15 15 15 15 14 14 14 14 15 15 15 15 15 15 15 16 16 16 16 16 16 17 17 17 17 17 17 17 17 17 17 17
9 11 12 13 13 14 14 14 14 14 15 15 15 15 15 15 15 14 14 14 14 14 15 15 15 15 15 15 16 16 16 16 16 17 17 17 16 17 17 17 17 17 17
9 10 11 12 13 13 13 14 14 14 14 14 14 14 15 15 15 15 15 14 14 14 14 15 15 15 15 15 15 16 16 16 16 16 17 16 16 16 16 17 17 17 17
10 10 11 12 12 12 13 13 13 13 13 13 14 14 14 14 14 14 14 14 14 14 14 14 14 15 15 15 15 15 15 16 16 16 16 16 16 16 16 17 17 17 17
10 10 11 11 12 12 12 12 12 13 13 13 13 13 13 13 13 14 14 14 14 14 14 14 14 14 14 15 15 15 15 15 15 16 16 16 16 16 16 17 17 17 17
9 10 11 11 11 11 11 11 12 12 12 12 12 12 12 12 13 13 13 13 13 14 14 14 14 14 14 14 14 15 15 15 15 15 15 15 15 16 16 16 17 17 17
9 10 10 11 11 11 11 11 11 11 11 11 12 12 12 12 12 12 12 12 13 13 13 13 14 14 14 14 14 14 15 15 15 15 15 15 15 16 16 16 16 17 17
9 10 10 10 10 11 11 11 11 10 10 11 11 11 12 12 12 12 12 12 12 12 12 13 13 13 13 14 14 14 14 14 14 15 15 15 15 15 16 16 16 16 16
9 9 9 9 10 10 10 10 10 9 9 9 9 10 10 11 11 11 11 11 12 12 12 12 12 12 13 13 13 14 14 14 14 14 15 15 15 15 15 16 16 16 16
7 8 8 8 8 9 9 9 8 8 7 7 7 7 7 8 8 9 10 10 11 11 11 11 12 12 12 12 13 13 13 14 14 14 14 15 15 15 15 15 16 16 16
6 6 7 7 7 7 7 7 6 6 5 5 5 4 4 5 6 7 8 9 9 10 10 11 11 12 12 12 12 12 12 13 13 14 14 14 15 15 15 15 15 15 16
6 6 6 6 6 5 5 5 4 4 3 3 3 2 2 3 4 4 5 6 6 7 8 9 10 11 11 11 11 12 12 12 13 13 14 14 14 14 15 15 15 15 15
5 4 4 4 3 3 3 3 3 2 2 1 1 1 1 1 1 2 3 4 4 4 5 6 8 9 9 10 11 11 11 12 12 13 13 13 14 14 14 15 15 15 15
3 3 3 3 3 3 3 2 2 1 1 0 -0 -0 -1 -1 -0 -0 1 2 2 2 3 4 5 6 7 8 9 10 11 11 12 12 13 13 13 13 14 14 15 15 15
2 2 2 2 2 2 2 1 1 0 -0 -1 -1 -1 -1 -2 -2 -2 -1 -1 -0 -0 1 2 3 3 5 6 8 9 10 10 11 11 12 12 13 13 13 14 14 15 15
2 1 1 0 0 0 0 -0 -0 -1 -1 -1 -2 -2 -2 -3 -3 -3 -3 -2 -2 -2 -1 -0 0 2 3 4 6 7 9 10 10 11 11 12 12 12 13 13 13 14 14
1 -0 -0 -0 -1 -1 -1 -1 -1 -2 -2 -3 -3 -3 -3 -4 -4 -4 -4 -4 -4 -3 -2 -2 -1 -1 0 2 3 5 7 8 9 10 11 11 12 12 12 12 13 13 13
-0 -1 -1 -1 -1 -2 -2 -2 -2 -3 -3 -4 -4 -4 -5 -5 -5 -5 -5 -5 -5 -4 -4 -4 -3 -2 -2 -1 1 3 5 7 8 10 10 11 11 12 12 12 12 12 13
-1 -1 -2 -3 -3 -4 -4 -4 -4 -4 -4 -5 -5 -5 -6 -6 -6 -6 -6 -6 -6 -6 -5 -5 -5 -4 -3 -2 -1 1 4 6 7 9 10 10 11 11 11 12 12 12 12
-2 -3 -3 -4 -4 -5 -5 -6 -6 -6 -6 -6 -6 -6 -6 -6 -6 -6 -6 -7 -7 -6 -6 -6 -5 -5 -4 -3 -3 -2 -0 3 6 8 9 10 10 11 11 11 11 12 12
-3 -3 -4 -5 -5 -6 -6 -6 -6 -6 -6 -6 -6 -7 -7 -7 -7 -7 -7 -7 -7 -7 -7 -7 -6 -5 -5 -4 -3 -3 -1 0 0 6 8 9 9 10 11 11 11 11 11
-3 -4 -4 -5 -6 -6 -7 -7 -8 -8 -8 -8 -8 -8 -8 -8 -8 -8 -8 -8 -8 -8 -8 -7 -7 -6 -5 -4 -4 -3 -2 -2 -1 0 6 8 8 9 10 11 11 11 11
-4 -4 -5 -6 -6 -7 -7 -8 -8 -8 -9 -9 -9 -9 -9 -9 -9 -9 -9 -9 -9 -9 -8 -8 -7 -7 -6 -5 -4 -4 -3 -2 -2 -1 -0 5 7 8 8 10 10 11 11
-4 -5 -5 -6 -7 -7 -7 -8 -9 -9 -9 -9 -9 -10 -10 -10 -10 -10 -10 -10 -10 -9 -9 -8 -8 -7 -6 -6 -5 -4 -4 -3 -2 -2 -1 0 2 6 7 8 9 10 11
Wind_Speed
15 26 31 33 32 31 29 27 25 23 21 20 19 17 17 16 15 15 14 13 12 12 11 11 11 11 10 9 8 6 5 5 5 5 4 3 2 2 2 1 3 1 7
15 22 28 30 30 31 30 30 29 27 25 24 22 20 18 17 16 15 15 14 14 13 12 12 12 12 12 11 10 8 7 6 5 5 5 5 5 4 4 2 2 4 6
16 20 25 29 30 30 30 29 29 28 27 26 25 23 21 19 18 16 15 15 14 14 13 13 12 12 12 12 11 10 9 8 7 6 6 9 9 9 6 4 1 2 4
16 18 24 27 28 29 30 29 29 28 28 27 26 25 24 22 20 19 17 16 16 15 15 14 14 13 12 12 12 11 10 10 9 8 9 11 12 11 9 6 4 2 3
16 18 23 27 27 28 29 29 29 29 28 28 28 27 25 24 23 21 19 18 17 16 16 15 14 14 12 12 12 12 12 12 11 10 12 14 9 12 10 8 6 5 4
17 20 23 28 28 28 28 29 28 29 28 28 29 28 27 25 25 24 22 21 19 17 17 16 15 15 13 12 12 13 13 13 12 12 14 15 8 13 11 9 8 6 6
16 22 25 29 30 29 28 29 28 28 28 28 28 29 28 26 25 24 24 24 23 21 19 17 16 15 14 13 12 13 13 14 12 12 13 14 10 12 12 10 10 8 8
19 22 25 29 31 31 29 29 28 27 28 28 28 30 29 27 25 25 25 25 25 24 22 20 18 16 15 14 13 13 12 13 13 14 14 14 12 13 13 12 11 11 10
21 23 26 28 29 31 30 30 29 28 28 28 28 30 29 28 26 26 26 27 26 26 25 23 21 18 17 16 15 13 12 13 13 11 14 13 15 16 15 13 12 13 12
19 23 26 27 29 30 29 29 30 28 28 28 27 29 29 28 27 26 27 28 27 27 26 25 24 22 20 17 16 14 13 12 13 14 14 13 14 17 17 15 13 14 14
17 20 25 26 27 28 27 27 28 26 27 27 26 28 27 25 24 23 27 28 28 28 27 26 27 26 22 18 17 18 16 11 13 14 14 15 15 17 17 15 14 15 16
17 16 22 24 26 27 25 25 24 24 25 25 25 26 24 24 23 23 26 27 27 28 26 27 28 25 22 17 16 17 12 13 14 14 14 18 18 18 17 15 14 15 17
13 15 19 24 26 26 24 23 22 22 22 24 25 25 24 22 21 22 22 22 24 23 21 24 23 21 20 17 15 13 11 12 11 13 15 21 21 20 18 16 15 16 18
13 15 16 24 24 25 25 22 22 21 21 22 24 24 23 19 19 20 19 21 20 19 18 19 18 20 20 20 17 13 12 10 11 12 13 19 21 19 18 17 16 17 18
14 15 13 22 22 24 23 21 21 21 21 23 23 23 23 18 16 19 19 19 20 18 17 16 15 14 14 16 16 14 11 11 12 12 11 15 20 20 18 17 17 18 18
14 15 14 20 24 25 23 21 21 22 22 22 22 24 23 22 20 18 17 17 18 19 20 17 15 12 10 11 14 15 14 13 12 12 11 13 19 20 19 18 19 19 19
13 14 14 19 25 25 23 23 22 22 23 22 22 23 24 25 22 20 15 14 17 21 21 17 14 11 11 12 14 16 14 13 13 12 12 10 13 19 20 19 19 20 20
12 14 14 21 22 23 22 22 22 22 23 22 22 22 24 26 25 22 15 13 20 21 17 11 11 12 11 12 12 13 13 13 15 13 12 10 9 12 18 21 20 20 21
12 13 14 15 18 21 21 22 22 22 22 22 22 21 24 25 26 24 18 17 21 17 12 12 13 12 13 13 13 12 11 13 14 15 13 11 9 9 11 18 22 21 21
11 12 13 13 17 21 19 19 17 17 19 21 20 21 25 24 26 24 19 20 20 12 10 12 14 13 12 13 15 14 13 14 13 14 14 12 8 9 10 10 14 17 21
11 12 13 13 14 14 12 13 13 13 12 13 19 23 24 24 26 23 18 18 17 12 14 15 14 14 12 12 12 14 12 13 14 12 12 11 11 8 9 10 10 12 14
11 12 12 12 12 12 11 11 9 11 9 14 19 22 23 24 25 22 18 15 15 12 14 15 15 12 12 11 11 11 7 8 6 9 9 11 12 9 9 9 10 11 11
10 11 13 12 12 13 17 13 12 8 9 9 11 8 20 24 24 22 19 17 15 12 12 15 15 15 13 12 9 7 6 5 12 11 12 8 7 8 9 8 10 11 13
9 9 10 11 10 12 15 11 14 12 12 13 11 10 19 24 24 23 21 20 16 12 13 13 14 14 14 12 10 8 9 10 7 8 11 12 13 10 7 8 9 9 12
9 9 9 10 10 11 13 11 11 11 10 11 12 12 10 17 21 22 22 21 17 12 11 14 14 14 12 12 11 10 11 10 11 10 14 15 12 10 9 7 7 8 9
8 8 9 10 10 9 10 10 11 12 13 14 14 12 12 10 13 19 23 21 19 15 12 13 14 15 13 14 11 10 10 9 9 9 11 15 16 14 12 9 6 6 6
Wind_Direction
347 354 360 10 16 19 19 17 14 12 9 5 2 0 358 354 351 348 347 346 344 343 340 333 327 323 320 318 318 319 316 314 316 317 306 281 239 189 155 205 313 249 116
350 1 6 13 18 22 23 23 22 20 16 12 7 1 356 350 345 340 337 336 335 335 334 331 321 313 308 305 305 305 300 296 294 299 288 263 233 214 196 204 353 86 115
2 12 12 17 21 24 24 23 22 21 19 17 13 8 2 355 348 341 335 331 329 328 327 325 320 310 301 297 294 292 288 285 280 279 274 260 225 211 203 191 146 94 115
7 20 16 19 23 24 25 24 23 21 19 17 14 10 6 1 356 349 342 336 332 327 323 318 315 308 296 288 283 279 277 276 272 268 265 257 230 204 194 187 190 182 164
11 22 20 19 21 23 23 22 21 20 18 17 15 11 7 4 1 357 351 345 337 331 323 316 311 308 299 287 278 270 266 266 265 261 265 271 243 185 186 187 194 201 193
15 16 19 18 18 19 20 18 18 17 15 15 14 11 8 6 4 3 1 355 348 338 329 319 312 307 302 291 279 268 260 259 257 252 253 263 237 173 182 188 196 205 203
17 16 16 16 15 13 14 14 13 13 11 11 11 9 6 4 5 5 5 2 356 348 338 326 314 308 302 295 284 271 259 253 248 253 253 254 240 184 186 191 198 203 206
18 16 14 14 12 9 7 9 7 8 8 6 8 6 3 1 1 3 3 1 357 352 346 336 322 310 302 295 288 277 263 251 247 243 249 247 235 198 195 197 203 205 205
22 17 14 13 10 6 2 4 2 3 4 2 4 4 1 358 358 358 360 356 354 351 347 341 334 321 306 294 286 279 267 251 248 259 258 245 233 214 207 202 208 208 205
23 18 14 11 9 4 358 360 359 359 1 359 1 1 359 356 355 354 355 351 351 349 346 343 342 332 316 299 284 274 264 254 244 249 252 249 238 222 215 208 212 213 208
20 16 13 8 7 3 358 357 354 355 358 357 358 357 357 353 350 351 352 347 349 346 345 347 344 337 329 309 286 269 256 240 242 243 240 237 232 221 214 212 216 216 209
15 11 12 6 4 2 358 355 352 352 354 354 354 353 354 351 348 351 348 344 346 343 347 346 343 341 338 326 310 290 260 240 241 246 234 222 220 218 215 214 219 217 209
13 10 10 5 3 2 357 354 350 350 351 350 350 349 351 349 348 350 345 340 341 340 345 344 343 337 332 327 318 307 279 260 253 252 238 217 210 215 218 218 221 220 213
12 9 7 4 2 0 356 352 349 348 348 346 345 348 350 350 350 347 342 336 337 337 341 343 334 330 331 327 320 314 300 277 266 265 258 217 201 207 216 222 225 224 219
11 7 4 1 2 359 355 352 348 346 346 344 343 346 351 355 348 344 338 336 332 338 342 334 329 331 329 326 325 323 314 302 281 268 262 220 201 200 211 221 226 227 225
9 5 2 1 2 358 355 352 347 344 345 343 342 344 352 356 345 343 335 333 332 341 336 329 327 327 326 327 326 325 318 310 297 282 264 234 214 203 208 219 225 228 227
8 5 3 0 0 357 352 352 347 344 345 343 341 344 353 351 343 342 334 330 335 338 333 330 326 329 330 330 326 324 320 315 308 297 281 252 225 216 210 215 222 227 228
10 7 4 1 358 355 351 352 346 344 344 341 341 345 352 346 343 342 335 331 338 339 334 332 337 338 331 327 323 316 311 307 303 298 290 272 240 220 216 216 219 224 228
13 8 3 0 358 353 351 350 343 344 341 339 341 347 348 344 344 341 333 335 339 337 336 338 337 334 330 327 319 310 307 305 299 294 286 275 257 234 209 212 216 220 225
13 9 1 358 357 352 352 346 341 342 339 337 341 347 345 343 342 337 334 338 337 334 336 334 331 333 329 325 320 315 306 294 285 279 276 271 259 244 225 212 209 220 223
11 8 360 357 354 352 352 345 342 340 337 334 342 345 341 341 339 336 339 337 335 334 332 331 332 327 327 326 324 323 304 282 268 264 259 258 252 243 228 219 210 207 215
10 6 357 356 351 351 349 340 336 331 329 332 340 336 337 340 338 338 339 337 335 331 329 330 329 325 324 332 328 323 317 309 329 296 268 248 242 235 228 218 212 214 210
11 5 355 350 348 348 347 341 338 329 331 335 336 331 337 339 336 335 337 338 333 331 327 328 326 326 323 320 317 313 316 321 329 308 310 293 264 238 226 220 213 212 216
11 2 352 346 344 346 347 343 341 340 337 335 333 328 335 336 333 334 338 338 332 329 325 324 326 321 317 315 314 300 289 293 295 309 314 319 321 295 256 228 218 210 211
10 359 347 342 342 344 346 341 338 334 332 330 329 330 332 331 331 335 338 336 330 325 322 322 320 316 313 308 308 304 296 284 268 276 291 301 309 306 297 264 226 211 205
7 355 344 342 341 342 343 339 338 333 333 332 333 332 331 328 330 335 335 333 328 324 322 320 318 314 310 305 304 303 298 287 276 268 273 287 296 301 306 295 265 219 198
Height
1582 1579 1576 1574 1571 1569 1567 1564 1562 1560 1558 1557 1555 1554 1553 1551 1550 1549 1548 1548 1547 1547 1546 1546 1546 1546 1545 1545 1545 1545 1545 1545 1545 1545 1546 1546 1546 1546 1546 1546 1546 1547 1548
1586 1581 1578 1575 1573 1570 1568 1565 1563 1561 1559 1557 1556 1554 1552 1551 1549 1548 1547 1546 1545 1545 1544 1544 1544 1544 1544 1544 1544 1544 1544 1544 1544 1544 1544 1545 1545 1546 1546 1546 1546 1547 1547
1586 1582 1579 1576 1574 1571 1569 1566 1564 1562 1560 1558 1556 1554 1552 1551 1549 1547 1546 1545 1543 1543 1542 1541 1541 1541 1541 1541 1541 1541 1542 1542 1542 1543 1543 1544 1544 1545 1545 1546 1546 1546 1547
1588 1583 1580 1577 1574 1571 1569 1567 1564 1562 1560 1558 1556 1554 1552 1550 1548 1546 1545 1543 1542 1540 1539 1538 1538 1538 1538 1538 1538 1538 1539 1539 1540 1541 1541 1542 1543 1544 1544 1545 1545 1546 1546
1589 1585 1581 1578 1575 1572 1569 1566 1564 1562 1559 1557 1555 1553 1551 1549 1547 1545 1543 1542 1540 1539 1537 1536 1535 1535 1535 1535 1535 1535 1535 1536 1537 1538 1539 1540 1541 1542 1543 1543 1544 1545 1546
1589 1586 1582 1578 1575 1572 1569 1566 1564 1561 1559 1556 1554 1552 1549 1547 1545 1543 1541 1539 1538 1536 1535 1534 1532 1532 1531 1531 1531 1531 1532 1533 1534 1535 1537 1538 1539 1540 1541 1542 1542 1543 1544
1589 1586 1583 1579 1576 1572 1570 1567 1564 1561 1558 1555 1552 1550 1548 1545 1543 1540 1538 1536 1535 1533 1532 1531 1530 1529 1528 1528 1528 1528 1529 1529 1530 1532 1533 1534 1536 1537 1538 1539 1540 1541 1542
1590 1586 1583 1580 1576 1573 1570 1567 1564 1561 1557 1554 1551 1548 1546 1543 1540 1538 1535 1533 1531 1529 1528 1527 1526 1525 1525 1524 1524 1524 1525 1525 1526 1528 1529 1531 1532 1533 1535 1536 1538 1539 1540
1590 1586 1583 1579 1576 1573 1570 1567 1563 1560 1556 1553 1550 1547 1544 1541 1538 1535 1532 1530 1528 1526 1524 1523 1522 1521 1520 1520 1520 1520 1521 1522 1522 1523 1525 1526 1528 1529 1531 1533 1534 1536 1537
1590 1586 1582 1579 1576 1572 1569 1566 1562 1559 1555 1551 1547 1544 1541 1538 1535 1532 1529 1526 1524 1522 1520 1518 1517 1516 1516 1516 1516 1516 1516 1517 1518 1519 1521 1522 1523 1524 1526 1529 1531 1532 1534
1589 1586 1582 1578 1575 1571 1567 1564 1560 1556 1552 1548 1544 1541 1537 1534 1531 1528 1525 1523 1520 1518 1516 1514 1512 1511 1511 1510 1511 1511 1511 1512 1513 1514 1516 1517 1518 1520 1522 1524 1526 1528 1530
1589 1585 1582 1578 1574 1570 1566 1561 1557 1553 1550 1546 1542 1538 1534 1530 1527 1524 1521 1518 1516 1513 1511 1509 1508 1506 1506 1505 1505 1506 1506 1506 1507 1509 1510 1511 1513 1515 1517 1519 1521 1524 1526
1591 1587 1582 1578 1574 1569 1564 1559 1555 1551 1547 1543 1539 1535 1531 1527 1523 1519 1516 1513 1510 1508 1505 1503 1502 1501 1500 1499 1499 1500 1500 1501 1502 1503 1505 1506 1507 1509 1512 1514 1516 1519 1521
1591 1587 1583 1578 1573 1568 1563 1558 1554 1549 1545 1541 1537 1533 1529 1524 1520 1516 1513 1510 1507 1503 1500 1498 1497 1495 1494 1494 1494 1494 1494 1495 1496 1497 1499 1500 1502 1503 1506 1508 1510 1513 1516
1591 1587 1582 1577 1572 1566 1561 1557 1552 1548 1544 1540 1536 1532 1528 1522 1518 1513 1510 1506 1503 1500 1497 1494 1492 1490 1488 1488 1488 1487 1488 1489 1490 1491 1493 1494 1496 1498 1500 1502 1504 1507 1510
1591 1587 1582 1577 1571 1566 1561 1556 1551 1547 1543 1538 1534 1531 1527 1521 1516 1511 1507 1504 1500 1497 1493 1491 1488 1486 1483 1482 1481 1481 1481 1482 1483 1484 1486 1488 1489 1491 1493 1495 1497 1501 1504
1592 1587 1581 1576 1571 1565 1560 1555 1551 1546 1541 1537 1533 1529 1525 1520 1515 1510 1506 1502 1498 1494 1490 1487 1484 1482 1479 1477 1475 1475 1475 1475 1475 1477 1479 1481 1483 1485 1487 1489 1491 1494 1497
1591 1586 1581 1575 1569 1564 1559 1554 1549 1545 1540 1535 1531 1527 1522 1518 1513 1508 1504 1500 1496 1491 1488 1484 1481 1477 1474 1471 1469 1468 1468 1468 1469 1470 1472 1474 1476 1478 1481 1483 1485 1488 1491
1591 1585 1580 1574 1568 1562 1557 1552 1547 1543 1538 1534 1530 1525 1520 1516 1511 1507 1502 1498 1494 1489 1485 1482 1477 1474 1470 1467 1464 1462 1461 1461 1462 1463 1465 1467 1470 1472 1475 1477 1479 1482 1484
1590 1585 1579 1573 1567 1561 1556 1550 1545 1540 1536 1532 1528 1524 1519 1514 1509 1505 1501 1496 1492 1487 1483 1479 1475 1471 1468 1464 1460 1456 1454 1454 1454 1455 1457 1460 1463 1466 1469 1471 1473 1476 1478
1589 1584 1578 1572 1566 1560 1554 1548 1542 1537 1533 1529 1526 1522 1517 1512 1508 1504 1500 1495 1490 1486 1482 1478 1473 1469 1466 1462 1457 1451 1447 1447 1447 1448 1450 1453 1456 1459 1462 1465 1467 1470 1472
1588 1583 1577 1571 1566 1560 1555 1549 1544 1538 1533 1529 1524 1520 1515 1511 1506 1503 1498 1494 1489 1484 1480 1476 1472 1468 1465 1463 1459 1453 1447 1443 1442 1442 1444 1446 1449 1452 1455 1458 1461 1464 1467
1587 1581 1576 1570 1565 1560 1554 1548 1542 1536 1531 1526 1520 1516 1513 1509 1505 1501 1497 1492 1487 1483 1478 1474 1471 1467 1463 1461 1460 1459 1454 1447 1440 1436 1437 1439 1443 1446 1449 1452 1454 1457 1460
1586 1581 1575 1570 1564 1559 1553 1547 1541 1536 1530 1525 1520 1515 1511 1506 1502 1499 1494 1490 1485 1481 1476 1472 1469 1465 1462 1459 1457 1456 1455 1452 1449 1439 1431 1431 1434 1437 1441 1445 1447 1451 1454
1585 1580 1574 1569 1563 1558 1552 1547 1541 1536 1530 1524 1519 1513 1508 1503 1500 1496 1491 1486 1481 1477 1473 1469 1465 1462 1459 1456 1453 1451 1450 1448 1446 1444 1435 1426 1426 1429 1433 1437 1440 1444 1447
1584 1578 1573 1567 1562 1556 1551 1545 1540 1534 1528 1522 1516 1510 1505 1500 1496 1492 1487 1482 1478 1474 1469 1465 1461 1458 1454 1452 1449 1447 1445 1443 1441 1440 1436 1430 1424 1422 1425 1428 1432 1436 1440